User: anonymous
Location: Limerick
(52.6800°N, 8.6400°W)
Time: 03:14:43
(UTC+01:00)
Language:

Sapphire - Orbit

View from above orbital plane
View from above orbital plane
View from above satellite
View from above satellite

Ground track
Ground track

The orbit data is extracted from the following two-line orbital elements,

1 26932U 01043D   14106.48720830  .00000070  00000-0  59014-4 0  5899
2 26932 067.0568 198.4527 0004581 261.5399 181.4816 14.29989372654834
Epoch (UTC): 16 April 2014 11:41:34
Eccentricity: 0.0004581
inclination: 67.0568°
perigee height: 788 km
apogee height: 795 km
right ascension of ascending node: 198.4527°
argument of perigee: 261.5399°
revolutions per day: 14.29989372
mean anomaly at epoch: 181.4816°
orbit number at epoch: 65483

The dashed part of the orbit path shows where the satellite is in the earth's shadow,  

DLR